TimeMST,TemperatureF,Dew PointF,Humidity,Sea Level PressureIn,VisibilityMPH,Wind Direction,Wind SpeedMPH,Gust SpeedMPH,PrecipitationIn,Events,Conditions,WindDirDegrees,DateUTC
12:53 AM,55.0,19.9,25,29.57,10.0,South,6.9,17.3,N/A,,Clear,190,2012-11-09 07:53:00
1:53 AM,53.1,21.9,30,29.58,10.0,SSW,24.2,31.1,N/A,,Clear,210,2012-11-09 08:53:00
2:53 AM,52.0,28.0,40,29.62,10.0,SW,12.7,26.5,N/A,,Mostly Cloudy,220,2012-11-09 09:53:00
3:53 AM,52.0,28.0,40,29.60,10.0,South,15.0,25.3,N/A,,Clear,190,2012-11-09 10:53:00
4:53 AM,48.9,28.9,46,29.62,10.0,ENE,6.9,-,N/A,,Clear,60,2012-11-09 11:53:00
5:53 AM,46.9,28.0,48,29.66,10.0,Calm,Calm,-,N/A,,Mostly Cloudy,0,2012-11-09 12:53:00
6:53 AM,48.0,30.0,50,29.68,10.0,East,9.2,-,N/A,,Partly Cloudy,90,2012-11-09 13:53:00
7:53 AM,53.1,30.9,43,29.65,10.0,Variable,3.5,-,N/A,,Mostly Cloudy,0,2012-11-09 14:53:00
8:53 AM,55.9,30.9,39,29.64,10.0,South,21.9,29.9,N/A,,Clear,190,2012-11-09 15:53:00
9:53 AM,57.0,28.9,34,29.56,10.0,SW,24.2,48.3,N/A,,Clear,220,2012-11-09 16:53:00
10:53 AM,57.9,28.9,33,29.55,10.0,SSW,21.9,31.1,N/A,,Partly Cloudy,200,2012-11-09 17:53:00
11:53 AM,60.1,26.1,27,29.48,10.0,SSW,28.8,42.6,N/A,,Clear,210,2012-11-09 18:53:00
12:53 PM,55.9,28.9,36,29.46,10.0,SSW,32.2,43.7,N/A,,Clear,210,2012-11-09 19:53:00
1:53 PM,55.9,30.0,37,29.46,10.0,SW,33.4,48.3,N/A,,Clear,220,2012-11-09 20:53:00
2:53 PM,54.0,33.1,45,29.47,10.0,WSW,13.8,-,N/A,,Clear,240,2012-11-09 21:53:00
3:53 PM,54.0,30.0,40,29.46,10.0,SSW,19.6,31.1,N/A,,Scattered Clouds,210,2012-11-09 22:53:00
4:53 PM,52.0,30.0,43,29.47,10.0,SSW,21.9,38.0,N/A,,Clear,200,2012-11-09 23:53:00
5:53 PM,52.0,30.0,43,29.46,10.0,SW,15.0,23.0,N/A,,Mostly Cloudy,220,2012-11-10 00:53:00
6:53 PM,50.0,33.1,52,29.50,10.0,SSW,21.9,32.2,0.00,,Scattered Clouds,200,2012-11-10 01:53:00
7:19 PM,44.6,37.4,76,29.60,9.0,South,17.3,28.8,0.03,Rain,Light Rain,170,2012-11-10 02:19:00
7:30 PM,44.6,35.6,71,29.59,10.0,South,13.8,-,0.03,,Scattered Clouds,170,2012-11-10 02:30:00
7:53 PM,45.0,36.0,71,29.47,10.0,SSE,16.1,-,0.03,,Partly Cloudy,160,2012-11-10 02:53:00
8:53 PM,46.0,35.1,66,29.46,10.0,South,11.5,20.7,N/A,,Clear,170,2012-11-10 03:53:00
9:53 PM,45.0,34.0,65,29.46,10.0,South,9.2,-,0.00,,Partly Cloudy,190,2012-11-10 04:53:00
10:53 PM,46.9,30.9,54,29.42,10.0,SSW,18.4,28.8,N/A,,Overcast,210,2012-11-10 05:53:00
11:53 PM,41.0,33.1,73,29.42,10.0,WNW,10.4,-,N/A,,Mostly Cloudy,290,2012-11-10 06:53:00